Terminal Aerodrome Forecast
Issued by NWS Duluth, MN

Home | Current Version | Previous Version | Text Only | Print | Product List | Glossary On
Versions: 1 2 3 4 5 6 7 8 9 10 11 12 13 14 15 16 17 18 19 20 21 22 23 24 25 26 27 28 29 30 31 32
000
FTUS43 KDLH 161640 AAB
TAFINL
TAF AMD
KINL 161640Z 1617/1712 09005KT 1/4SM +SN BKN029 BKN035 OVC045
     FM161800 15005KT P6SM -SN OVC025
     FM162300 15005KT P6SM -SN OVC015
     FM170400 19005KT P6SM BKN015=

USA.gov is the U.S. government's official web portal to all federal, state and local government web resources and services.